DL1DUR-2 Weather Reports


time (UTC)temp
C
wind
direction
speed
KPH
gust
KPH
rain 1hr
cm
rain 24hr
cm
rain mn
cm
humidity
%
barometer
mb
20260507060204 10 113 3.2 6.4 0.00 1.37 1.37 96 1008.9
20260507055704 10 99 4.8 8.0 0.00 1.37 1.37 96 1008.9
20260507055204 10 82 4.8 8.0 0.00 1.37 1.37 96 1009.1
20260507054705 10 101 3.2 8.0 0.00 1.37 1.37 96 1008.9
20260507054204 10 92 3.2 8.0 0.00 1.37 1.37 96 1008.8
20260507053704 10 86 3.2 8.0 0.00 1.37 1.37 96 1008.8
20260507053204 10 150 1.6 8.0 0.00 1.37 1.37 96 1008.8
20260507052704 10 123 0.0 3.2 0.03 1.37 1.37 96 1008.6
20260507051704 10 106 0.0 1.6 0.05 1.37 1.37 96 1008.6
20260507051205 10 173 0.0 4.8 0.10 1.37 1.37 96 1008.5
20260507050704 10 134 0.0 4.8 0.13 1.37 1.37 96 1008.5
20260507050204 10 200 1.6 4.8 0.15 1.37 1.37 96 1008.5
20260507045704 10 153 1.6 4.8 0.18 1.37 1.37 96 1008.3
20260507045205 10 150 0.0 4.8 0.20 1.37 1.37 96 1008.3
20260507044705 10 127 0.0 0.0 0.23 1.37 1.37 96 1008.3
20260507044205 10 169 0.0 3.2 0.23 1.37 1.37 96 1008.3
20260507043704 10 69 0.0 3.2 0.23 1.37 1.37 96 1008.4
20260507043204 10 54 0.0 3.2 0.28 1.37 1.37 96 1008.3
20260507042704 10 76 0.0 4.8 0.25 1.37 1.37 96 1008.3
20260507042204 10 24 0.0 4.8 0.23 1.32 1.32 96 1008.4
20260507041204 10 62 1.6 6.4 0.25 1.27 1.27 96 1008.2
20260507040704 10 17 1.6 6.4 0.28 1.27 1.27 96 1008.1
20260507040204 10 355 1.6 4.8 0.23 1.22 1.22 96 1008.1
20260507035705 10 19 1.6 4.8 0.23 1.17 1.17 96 1008.1
20260507034704 10 38 1.6 4.8 0.20 1.17 1.17 96 1008.2
20260507033204 10 34 1.6 6.4 0.15 1.09 1.09 95 1008.0
20260507032704 10 16 1.6 6.4 0.13 1.09 1.09 95 1008.0
20260507032203 10 26 1.6 8.0 0.10 1.07 1.07 95 1007.9
20260507031704 10 38 3.2 8.0 0.08 1.04 0.99 95 1007.9
20260507030704 10 76 1.6 4.8 0.03 0.99 0.99 95 1007.9
20260507030204 10 92 0.0 4.8 0.03 0.99 0.99 95 1007.9
20260507025704 10 54 1.6 3.2 0.00 0.97 0.97 95 1007.8
20260507024704 10 0 0.0 4.8 0.00 0.97 0.97 95 1007.7
20260507024204 10 36 1.6 4.8 0.03 0.97 0.97 95 1007.7
20260507023705 10 58 1.6 8.0 0.03 0.97 0.97 95 1007.6
20260507023204 10 23 1.6 9.7 0.03 0.97 0.97 95 1007.8
20260507022204 11 24 4.8 11.3 0.03 0.97 0.97 95 1007.7
20260507021704 11 50 3.2 14.5 0.03 0.97 0.97 95 1007.7
20260507021204 11 11 3.2 16.1 0.05 0.97 0.97 95 1007.6
20260507020704 11 350 6.4 16.1 0.05 0.97 0.97 94 1007.6
20260507020204 11 37 6.4 12.9 0.05 0.97 0.97 95 1007.6
20260507015704 11 16 4.8 9.7 0.05 0.97 0.97 95 1007.5
20260507015203 11 28 4.8 11.3 0.08 0.97 0.97 95 1007.7
20260507014704 11 46 4.8 11.3 0.10 0.94 0.94 95 1007.6
20260507013704 12 31 3.2 11.3 0.15 0.97 0.94 95 1007.5
20260507012704 12 316 3.2 8.0 0.30 0.97 0.94 95 1007.4
20260507012204 12 21 3.2 8.0 0.36 0.97 0.94 95 1007.1
20260507011707 12 247 3.2 6.4 0.43 0.97 0.94 95 1007.0
20260507011204 12 0 3.2 6.4 0.51 0.94 0.91 95 1007.0
20260507010704 12 36 3.2 6.4 0.66 0.94 0.91 95 1007.1
20260507010204 12 338 3.2 4.8 0.69 0.91 0.89 95 1007.0
20260507005704 12 311 1.6 4.8 0.71 0.91 0.89 95 1007.0
20260507005204 12 12 3.2 4.8 0.66 0.89 0.86 95 1007.0
20260507004704 12 290 3.2 4.8 0.64 0.84 0.81 94 1007.0
20260507004204 12 274 1.6 3.2 0.61 0.81 0.79 94 1007.0
20260507003704 12 276 1.6 4.8 0.56 0.79 0.74 94 1006.9
20260507003205 12 276 1.6 4.8 0.53 0.74 0.71 94 1006.8
20260507002204 12 311 1.6 9.7 0.38 0.61 0.53 94 1006.9
20260507001704 12 355 1.6 9.7 0.33 0.56 0.48 94 1006.7
20260507001204 12 23 3.2 9.7 0.18 0.43 0.33 94 1006.7
20260507000704 12 319 1.6 4.8 0.10 0.38 0.23 94 1006.7
20260507000205 12 329 1.6 4.8 0.05 0.33 0.23 93 1006.6
20260506235704 12 24 1.6 4.8 0.05 0.33 0.20 93 1006.7
20260506235204 12 34 1.6 4.8 0.05 0.36 0.20 93 1006.7
20260506234704 12 338 1.6 6.4 0.05 0.36 0.18 93 1006.6
20260506233204 13 19 1.6 4.8 0.10 0.43 0.15 93 1006.6
20260506232704 13 327 1.6 4.8 0.15 0.51 0.15 93 1006.6
20260506232205 13 330 1.6 4.8 0.15 0.53 0.15 92 1006.5
20260506231204 13 5 0.0 3.2 0.15 0.56 0.15 92 1006.5
20260506225704 13 56 0.0 4.8 0.15 0.61 0.15 91 1006.6
20260506225204 13 57 1.6 6.4 0.15 0.61 0.15 90 1006.5
20260506224204 13 43 1.6 6.4 0.10 0.64 0.10 90 1006.7
20260506223704 13 90 1.6 8.0 0.08 0.61 0.08 92 1006.7
20260506223204 13 77 1.6 8.0 0.05 0.61 0.05 89 1006.7
20260506222704 13 32 3.2 8.0 0.00 0.61 0.00 89 1006.7
20260506222204 13 17 1.6 8.0 0.00 0.66 0.00 89 1006.7
20260506221705 13 14 3.2 8.0 0.00 0.71 0.00 89 1006.8
20260506221204 13 42 3.2 6.4 0.00 0.71 0.00 89 1006.8
20260506220705 13 42 3.2 6.4 0.00 0.74 0.00 89 1006.7
20260506220204 13 355 3.2 6.4 0.00 0.76 0.76 89 1006.7
20260506215707 13 344 1.6 8.0 0.00 0.79 0.76 88 1006.7
20260506214704 13 53 3.2 8.0 0.00 0.79 0.76 88 1006.7
20260506214204 13 355 3.2 8.0 0.00 0.79 0.76 88 1006.7
20260506213704 13 15 3.2 8.0 0.00 0.79 0.76 88 1006.6
20260506213205 13 269 3.2 14.5 0.00 0.79 0.76 88 1006.5
20260506212704 13 10 3.2 14.5 0.00 0.79 0.76 88 1006.7
20260506212206 13 81 4.8 14.5 0.00 0.79 0.76 88 1006.6
20260506211204 14 121 4.8 11.3 0.00 0.79 0.76 88 1006.3
20260506210704 14 92 4.8 11.3 0.00 0.79 0.76 88 1006.4
20260506210204 14 62 3.2 8.0 0.00 0.79 0.76 88 1006.4
20260506205704 14 22 3.2 8.0 0.00 0.79 0.76 88 1006.3
20260506205204 14 69 3.2 6.4 0.00 0.79 0.76 88 1006.2
20260506204704 14 43 1.6 6.4 0.00 0.79 0.76 88 1006.3
20260506204205 14 60 1.6 6.4 0.00 0.79 0.76 88 1006.4
20260506203704 14 14 1.6 4.8 0.00 0.79 0.76 88 1006.4
20260506203204 14 23 1.6 4.8 0.00 0.79 0.76 88 1006.4
20260506202704 14 18 1.6 6.4 0.00 0.79 0.76 87 1006.4
20260506202204 14 323 1.6 6.4 0.00 0.79 0.76 87 1006.4
20260506201704 14 344 1.6 8.0 0.00 0.79 0.76 87 1006.3
20260506201205 14 25 3.2 8.0 0.00 0.79 0.76 87 1006.2
20260506195704 15 34 3.2 6.4 0.00 0.79 0.76 86 1006.4
20260506194204 15 37 1.6 4.8 0.00 0.79 0.76 85 1006.5
20260506193706 15 35 1.6 4.8 0.00 0.79 0.76 85 1006.5
20260506193204 15 45 1.6 4.8 0.00 0.79 0.76 84 1006.4
20260506192705 15 45 1.6 9.7 0.00 0.79 0.76 84 1006.4
20260506192204 15 71 1.6 9.7 0.00 0.79 0.76 84 1006.4
20260506191704 15 330 1.6 9.7 0.00 0.79 0.76 84 1006.3
20260506191205 15 308 1.6 3.2 0.00 0.79 0.76 83 1006.2
20260506190204 16 309 1.6 6.4 0.00 0.79 0.76 82 1006.0
20260506185704 16 325 1.6 6.4 0.00 0.79 0.76 82 1006.0
20260506185204 16 19 1.6 6.4 0.00 0.79 0.76 80 1005.8
20260506184704 16 84 1.6 4.8 0.00 0.79 0.76 80 1005.6
20260506184204 16 18 1.6 4.8 0.00 0.79 0.76 79 1005.7
20260506183705 16 313 3.2 4.8 0.00 0.79 0.76 79 1005.9
20260506182704 16 315 3.2 8.0 0.00 0.79 0.76 78 1005.9
20260506181704 16 320 3.2 6.4 0.00 0.79 0.76 76 1005.6
20260506181204 17 327 3.2 4.8 0.00 0.79 0.76 76 1005.7
20260506180704 17 321 1.6 3.2 0.00 0.79 0.76 75 1005.6
20260506180206 17 306 1.6 4.8 0.00 0.79 0.76 74 1005.6
20260506175704 17 306 1.6 4.8 0.00 0.79 0.76 74 1005.5
20260506175204 17 304 1.6 4.8 0.00 0.79 0.76 73 1005.6
20260506174704 17 285 1.6 3.2 0.00 0.79 0.76 72 1005.6
20260506174204 18 319 1.6 6.4 0.00 0.79 0.76 72 1005.4
20260506173204 18 347 3.2 9.7 0.00 0.79 0.76 70 1005.2
20260506172205 18 35 4.8 12.9 0.00 0.79 0.76 69 1005.2
20260506171704 18 21 4.8 12.9 0.00 0.79 0.76 68 1005.1
20260506170704 19 42 6.4 14.5 0.00 0.79 0.76 67 1005.5
20260506170205 19 33 6.4 16.1 0.00 0.79 0.76 67 1005.5
20260506165704 20 38 4.8 16.1 0.00 0.79 0.76 66 1005.5
20260506164705 20 322 4.8 8.0 0.00 0.79 0.76 59 1005.4
20260506164204 20 325 3.2 8.0 0.00 0.79 0.76 58 1005.4
20260506163704 20 252 3.2 11.3 0.00 0.79 0.76 58 1005.3
20260506163204 20 313 4.8 11.3 0.00 0.79 0.76 59 1005.2
20260506162704 20 287 4.8 11.3 0.00 0.79 0.76 59 1005.1
20260506162204 20 338 6.4 11.3 0.00 0.79 0.76 59 1005.1
20260506161705 20 272 4.8 8.0 0.00 0.79 0.76 58 1005.2
20260506161204 20 217 3.2 9.7 0.00 0.79 0.76 59 1005.4
20260506160704 20 294 3.2 12.9 0.00 0.79 0.76 59 1005.4
20260506160203 20 284 4.8 12.9 0.00 0.79 0.76 58 1005.5
20260506155704 20 262 4.8 12.9 0.00 0.79 0.76 59 1005.6
20260506155204 20 244 4.8 9.7 0.00 0.79 0.76 58 1005.6
20260506154704 20 246 4.8 11.3 0.00 0.79 0.76 58 1005.6
20260506154204 20 226 4.8 12.9 0.00 0.79 0.76 58 1005.7
20260506153704 20 238 4.8 16.1 0.00 0.79 0.76 58 1005.7
20260506153204 20 230 6.4 16.1 0.00 0.79 0.76 57 1005.8
20260506152204 20 264 6.4 17.7 0.00 0.79 0.76 56 1005.9
20260506151704 20 237 6.4 17.7 0.00 0.79 0.76 55 1005.8
20260506150705 20 229 6.4 14.5 0.00 0.79 0.76 57 1005.8
20260506150204 20 175 6.4 14.5 0.00 0.79 0.76 55 1005.9
20260506145703 20 235 6.4 14.5 0.00 0.79 0.76 57 1005.8
20260506144704 20 173 4.8 19.3 0.00 0.79 0.76 56 1006.0
20260506143704 21 234 8.0 19.3 0.00 0.79 0.76 56 1006.0
20260506143204 21 222 6.4 20.9 0.00 0.79 0.76 56 1006.2
20260506142704 21 212 8.0 20.9 0.00 0.79 0.76 54 1006.2
20260506142204 21 248 9.7 20.9 0.00 0.79 0.76 54 1006.2
20260506141704 21 290 8.0 16.1 0.00 0.79 0.76 55 1006.2
20260506141204 21 173 6.4 16.1 0.00 0.79 0.76 53 1006.3
20260506140704 21 315 6.4 17.7 0.00 0.79 0.76 55 1006.3
20260506140204 21 237 9.7 17.7 0.00 0.79 0.76 55 1006.3
20260506135204 21 243 4.8 27.4 0.00 0.79 0.76 54 1006.5
20260506133704 21 286 6.4 22.5 0.00 0.79 0.76 55 1006.5
20260506132704 21 247 9.7 22.5 0.00 0.79 0.76 55 1006.3
20260506132204 21 242 6.4 25.7 0.00 0.79 0.76 57 1006.4
20260506131704 21 226 9.7 25.7 0.00 0.79 0.76 57 1006.5
20260506130704 21 310 12.9 24.1 0.00 0.79 0.76 55 1006.5
20260506130204 21 292 9.7 19.3 0.00 0.79 0.76 56 1006.6
20260506125704 21 213 9.7 19.3 0.00 0.79 0.76 57 1006.7
20260506125204 21 290 6.4 24.1 0.00 0.79 0.76 58 1006.6
20260506124703 21 196 8.0 24.1 0.00 0.79 0.76 58 1006.6
20260506124204 21 252 9.7 24.1 0.00 0.79 0.76 57 1006.7
20260506123704 21 225 8.0 22.5 0.00 0.79 0.76 58 1006.7
20260506123206 21 313 9.7 22.5 0.00 0.79 0.76 59 1006.9
20260506122704 21 211 9.7 22.5 0.00 0.79 0.76 58 1006.8
20260506121704 20 289 8.0 19.3 0.00 0.79 0.76 61 1006.8
20260506121204 20 214 8.0 17.7 0.00 0.79 0.76 62 1006.9
20260506120705 20 241 6.4 17.7 0.00 0.79 0.76 62 1006.8
20260506120204 20 218 6.4 17.7 0.00 0.79 0.76 63 1006.9
20260506115704 20 242 6.4 17.7 0.00 0.79 0.76 63 1006.8
20260506114704 20 252 8.0 20.9 0.00 0.79 0.76 64 1006.8
20260506114204 20 292 9.7 17.7 0.00 0.79 0.76 64 1006.7
20260506113704 20 273 8.0 17.7 0.00 0.79 0.76 64 1006.7
20260506112704 19 288 6.4 25.7 0.00 0.79 0.76 67 1006.6
20260506112204 18 266 8.0 25.7 0.00 0.79 0.76 69 1006.6
20260506111204 18 288 8.0 17.7 0.00 0.79 0.76 67 1006.5
20260506110704 18 258 6.4 16.1 0.00 0.79 0.76 68 1006.6
20260506110204 18 211 6.4 17.7 0.00 0.79 0.76 69 1006.6
20260506105704 18 276 6.4 17.7 0.00 0.79 0.76 70 1006.7
20260506105205 18 244 6.4 17.7 0.00 0.79 0.76 72 1006.7
20260506104705 18 187 4.8 17.7 0.00 0.79 0.76 70 1006.6
20260506104204 18 184 4.8 16.1 0.00 0.79 0.76 73 1006.6
20260506103704 17 266 6.4 14.5 0.00 0.79 0.76 73 1006.5
20260506102204 18 147 6.4 17.7 0.00 0.79 0.76 72 1006.6
20260506101704 18 221 8.0 17.7 0.00 0.79 0.76 74 1006.6
20260506101204 17 248 9.7 17.7 0.00 0.79 0.76 74 1006.6
20260506100705 17 252 6.4 17.7 0.00 0.79 0.76 76 1006.7
20260506094704 16 168 6.4 22.5 0.00 0.79 0.76 76 1006.8
20260506094203 16 251 8.0 22.5 0.00 0.79 0.76 76 1006.8
20260506093704 17 260 8.0 17.7 0.00 0.79 0.76 75 1006.7
20260506093204 17 218 8.0 19.3 0.00 0.79 0.76 77 1006.7
20260506092204 17 241 9.7 25.7 0.00 0.79 0.76 73 1006.6
20260506091704 17 284 11.3 25.7 0.00 0.79 0.76 76 1006.5
20260506090205 16 231 9.7 27.4 0.00 0.79 0.76 79 1006.5
20260506085704 16 203 11.3 27.4 0.00 0.79 0.76 78 1006.4
20260506084204 16 233 8.0 29.0 0.00 0.79 0.76 78 1006.3
20260506083704 16 140 11.3 29.0 0.00 0.79 0.76 79 1006.1
20260506083204 16 242 11.3 29.0 0.00 0.79 0.76 80 1006.0
20260506082704 16 229 9.7 27.4 0.00 0.79 0.76 80 1006.0
20260506082204 16 183 11.3 27.4 0.00 0.79 0.76 81 1006.0
20260506081204 16 211 8.0 24.1 0.00 0.79 0.76 80 1006.0
20260506080704 16 294 9.7 24.1 0.00 0.79 0.76 82 1005.8
20260506080204 15 240 12.9 24.1 0.00 0.79 0.76 81 1005.8
20260506072205 15 250 8.0 19.3 0.00 0.79 0.76 83 1005.6
20260506071705 15 224 8.0 22.5 0.00 0.79 0.76 84 1005.6
20260506071204 14 242 9.7 25.7 0.00 0.79 0.76 84 1005.5
20260506070704 14 209 11.3 25.7 0.00 0.79 0.76 85 1005.4
20260506070204 14 253 9.7 25.7 0.00 0.79 0.76 86 1005.5
20260506062204 13 214 9.7 25.7 0.00 0.79 0.76 88 1005.7
20260506061704 13 185 9.7 25.7 0.00 0.79 0.76 88 1005.6